Location: Chiroubles
(46.1812°N, 4.6660°E)
Time: 03:14:42
(UTC+00:00)

Tiros 1 - Pass Details

Date: 28 November 2020
Orbit: 630 x 663 km, 48.4° (Epoch: 16 January)

Event Time Altitude Azimuth Distance (km) Brightness Sun altitude
Rises 18:07:49 0° 276° (W) 2,990 11.9 -21.8°
Reaches altitude 10° 18:10:12 10° 279° (W) 2,074 10.8 -22.2°
Maximum altitude 18:14:58 67° 2° (N) 714 7.2 -23.0°
Enters shadow 18:15:22 63° 33° (NNE) 731 7.1 -23.1°
